Weather History for KCDD - May, 2013

Change the Weather History Date:

Tuesday, May 28, 2013

  Actual Average Record
Temperature  
Mean Temperature 53 °F -  
Max Temperature 71 °F 64 °F 91 °F (2006)
Min Temperature 35 °F 40 °F 28 °F (2008)
Degree Days  
Heating Degree Days 12    
Growing Degree Days 3 (Base 50)    
Moisture  
Dew Point 43 °F    
Average Humidity 61    
Maximum Humidity 93    
Minimum Humidity 41    
Precipitation  
Precipitation 0.00 in - - ()
Sea Level Pressure  
Sea Level Pressure 29.79 in    
Wind  
Wind Speed 1 mph (SSE)    
Max Wind Speed 8 mph    
Max Gust Speed -    
Visibility 10 miles    
Events      
Averages and records for this station are not official NWS values.
T = Trace of Precipitation, MM = Missing Value Source: NWS Daily Summary

Daily Weather History Graph

Daily Weather History Graph

Search for Another Location

Airport or City:

Trip Planner

Search our weather history database for the weather conditions in past years. The results will help you decide how hot, cold, wet, or windy it might be!

Date:

Astronomy

May. 28, 2013 Rise Set
Actual Time 5:16 AM CDT 8:58 PM CDT
Civil Twilight 4:36 AM CDT 9:38 PM CDT
Nautical Twilight 3:43 AM CDT 10:32 PM CDT
Astronomical Twilight 2:26 AM CDT 11:50 PM CDT
Moon No Moon Rise 9:12 AM CDT
Length of Visible Light 17h 01m
Length of Day
15h 42m
Waning Gibbous, 82% of the Moon is Illuminated
May 28
Waning Gibbous
May 31
Last Quarter
Jun 8
New
Jun 16
First Quarter
Jun 23
Full

Hourly Weather History & Observations

Time (CDT) Temp. Dew Point Humidity Pressure Visibility Wind Dir Wind Speed Gust Speed Precip Events Conditions
12:09 AM 50.0 °F 33.8 °F 54% 29.90 in 10.0 mi Calm Calm - N/A   Clear
12:29 AM 48.2 °F 35.6 °F 62% 29.90 in 10.0 mi Calm Calm - N/A   Clear
12:49 AM 44.6 °F 32.0 °F 61% 29.89 in 10.0 mi Calm Calm - N/A   Clear
1:09 AM 44.6 °F 33.8 °F 66% 29.90 in 10.0 mi Calm Calm - N/A   Clear
1:29 AM 42.8 °F 33.8 °F 70% 29.89 in 10.0 mi Calm Calm - N/A   Clear
1:49 AM 42.8 °F 35.6 °F 76% 29.89 in 10.0 mi Calm Calm - N/A   Clear
2:09 AM 41.0 °F 35.6 °F 81% 29.88 in 10.0 mi Calm Calm - N/A   Clear
2:29 AM 41.0 °F 35.6 °F 81% 29.87 in 10.0 mi Calm Calm - N/A   Clear
2:49 AM 39.2 °F 33.8 °F 81% 29.87 in 10.0 mi Calm Calm - N/A   Clear
3:09 AM 39.2 °F 33.8 °F 81% 29.86 in 10.0 mi Calm Calm - N/A   Clear
3:29 AM 39.2 °F 33.8 °F 81% 29.86 in 10.0 mi Calm Calm - N/A   Clear
3:49 AM 39.2 °F 33.8 °F 81% 29.86 in 10.0 mi Calm Calm - N/A   Clear
4:09 AM 37.4 °F 33.8 °F 87% 29.86 in 10.0 mi Calm Calm - N/A   Clear
4:29 AM 37.4 °F 33.8 °F 87% 29.86 in 10.0 mi Calm Calm - N/A   Clear
4:49 AM 37.4 °F 33.8 °F 87% 29.87 in 10.0 mi Calm Calm - N/A   Clear
5:09 AM 37.4 °F 33.8 °F 87% 29.87 in 10.0 mi Calm Calm - N/A   Clear
5:29 AM 35.6 °F 33.8 °F 93% 29.86 in 10.0 mi Calm Calm - N/A   Clear
5:49 AM 35.6 °F 33.8 °F 93% 29.86 in 10.0 mi Calm Calm - N/A   Clear
6:09 AM 37.4 °F 33.8 °F 87% 29.85 in 10.0 mi Calm Calm - N/A   Clear
6:29 AM 39.2 °F 35.6 °F 87% 29.84 in 10.0 mi Calm Calm - N/A   Clear
6:49 AM 46.4 °F 42.8 °F 87% 29.84 in 10.0 mi Calm Calm - N/A   Clear
7:09 AM 51.8 °F 46.4 °F 82% 29.84 in 10.0 mi Calm Calm - N/A   Scattered Clouds
7:29 AM 53.6 °F 42.8 °F 67% 29.84 in 10.0 mi Calm Calm - N/A   Mostly Cloudy
7:49 AM 53.6 °F 42.8 °F 67% 29.84 in 10.0 mi SSE 3.5 mph - N/A   Overcast
8:09 AM 53.6 °F 42.8 °F 67% 29.84 in 10.0 mi Calm Calm - N/A   Overcast
8:29 AM 53.6 °F 42.8 °F 67% 29.83 in 10.0 mi Calm Calm - N/A   Overcast
8:49 AM 53.6 °F 44.6 °F 72% 29.82 in 10.0 mi Calm Calm - N/A   Overcast
9:09 AM 55.4 °F 44.6 °F 67% 29.82 in 10.0 mi Calm Calm - N/A   Overcast
9:29 AM 57.2 °F 44.6 °F 63% 29.81 in 10.0 mi Calm Calm - N/A   Overcast
9:49 AM 57.2 °F 44.6 °F 63% 29.81 in 10.0 mi Calm Calm - N/A   Overcast
10:09 AM 60.8 °F 44.6 °F 55% 29.80 in 10.0 mi Calm Calm - N/A   Overcast
10:29 AM 62.6 °F 46.4 °F 55% 29.79 in 10.0 mi ENE 3.5 mph - N/A   Overcast
10:49 AM 64.4 °F 44.6 °F 49% 29.79 in 10.0 mi SSE 5.8 mph - N/A   Mostly Cloudy
11:09 AM 66.2 °F 46.4 °F 49% 29.79 in 10.0 mi East 3.5 mph - N/A   Overcast
11:29 AM 66.2 °F 46.4 °F 49% 29.79 in 10.0 mi Calm Calm - N/A   Overcast
11:49 AM 66.2 °F 46.4 °F 49% 29.79 in 10.0 mi SSE 5.8 mph - N/A   Overcast
12:09 PM 66.2 °F 46.4 °F 49% 29.79 in 10.0 mi ESE 5.8 mph - N/A   Overcast
12:29 PM 66.2 °F 46.4 °F 49% 29.78 in 10.0 mi SSE 3.5 mph - N/A   Overcast
12:49 PM 68.0 °F 46.4 °F 46% 29.77 in 10.0 mi SE 4.6 mph - N/A   Mostly Cloudy
1:09 PM 69.8 °F 46.4 °F 43% 29.77 in 10.0 mi SSE 6.9 mph - N/A   Mostly Cloudy
1:29 PM 69.8 °F 46.4 °F 43% 29.76 in 10.0 mi ESE 4.6 mph - N/A   Overcast
1:49 PM 69.8 °F 46.4 °F 43% 29.76 in 10.0 mi Calm Calm - N/A   Mostly Cloudy
2:09 PM 71.6 °F 46.4 °F 41% 29.75 in 10.0 mi SSE 8.1 mph - N/A   Overcast
2:29 PM 69.8 °F 46.4 °F 43% 29.75 in 10.0 mi SSE 4.6 mph - N/A   Overcast
2:49 PM 69.8 °F 46.4 °F 43% 29.74 in 10.0 mi South 5.8 mph - N/A   Overcast
3:09 PM 71.6 °F 46.4 °F 41% 29.74 in 10.0 mi SSE 3.5 mph - N/A   Overcast
3:29 PM 71.6 °F 48.2 °F 43% 29.73 in 10.0 mi SE 3.5 mph - N/A   Overcast
3:49 PM 71.6 °F 48.2 °F 43% 29.73 in 10.0 mi SSE 6.9 mph - N/A   Mostly Cloudy
4:09 PM 71.6 °F 48.2 °F 43% 29.73 in 10.0 mi SE 5.8 mph - N/A   Overcast
4:29 PM 71.6 °F 48.2 °F 43% 29.73 in 10.0 mi SSE 6.9 mph - N/A   Overcast
4:49 PM 71.6 °F 48.2 °F 43% 29.72 in 10.0 mi South 5.8 mph - N/A   Overcast
5:09 PM 71.6 °F 48.2 °F 43% 29.72 in 10.0 mi SE 5.8 mph - N/A   Overcast
5:29 PM 71.6 °F 46.4 °F 41% 29.72 in 10.0 mi South 5.8 mph - N/A   Mostly Cloudy
5:49 PM 69.8 °F 46.4 °F 43% 29.72 in 10.0 mi Calm Calm - N/A   Overcast
6:09 PM 69.8 °F 48.2 °F 46% 29.71 in 10.0 mi SSE 3.5 mph - N/A   Overcast
6:29 PM 69.8 °F 46.4 °F 43% 29.71 in 10.0 mi South 5.8 mph - N/A   Scattered Clouds
6:49 PM 71.6 °F 46.4 °F 41% 29.71 in 10.0 mi SSE 4.6 mph - N/A   Scattered Clouds
7:09 PM 71.6 °F 46.4 °F 41% 29.71 in 10.0 mi SSE 4.6 mph - N/A   Scattered Clouds
7:29 PM 68.0 °F 48.2 °F 49% 29.71 in 10.0 mi SE 3.5 mph - N/A   Mostly Cloudy
7:49 PM 66.2 °F 48.2 °F 52% 29.71 in 10.0 mi SSE 4.6 mph - N/A   Overcast
8:09 PM 66.2 °F 48.2 °F 52% 29.72 in 10.0 mi SSE 4.6 mph - N/A   Overcast
8:29 PM 64.4 °F 48.2 °F 56% 29.72 in 10.0 mi SSE 5.8 mph - N/A   Overcast
8:49 PM 64.4 °F 50.0 °F 59% 29.72 in 10.0 mi Calm Calm - N/A   Overcast
9:08 PM 62.6 °F 48.2 °F 59% 29.72 in 10.0 mi SSE 3.5 mph - N/A   Overcast
9:29 PM 62.6 °F 48.2 °F 59% 29.72 in 10.0 mi SSE 4.6 mph - N/A   Overcast
9:49 PM 62.6 °F 48.2 °F 59% 29.72 in 10.0 mi SSE 3.5 mph - N/A   Overcast
10:09 PM 60.8 °F 48.2 °F 63% 29.72 in 10.0 mi SE 3.5 mph - N/A   Overcast
10:29 PM 60.8 °F 48.2 °F 63% 29.72 in 10.0 mi SSE 3.5 mph - N/A   Scattered Clouds
10:49 PM 57.2 °F 48.2 °F 72% 29.72 in 10.0 mi Calm Calm - N/A   Scattered Clouds
11:09 PM 57.2 °F 48.2 °F 72% 29.71 in 10.0 mi Calm Calm - N/A   Mostly Cloudy
11:29 PM 57.2 °F 48.2 °F 72% 29.71 in 10.0 mi SSE 3.5 mph - N/A   Overcast
11:49 PM 57.2 °F 48.2 °F 72% 29.72 in 10.0 mi South 3.5 mph - N/A   Overcast